Zurück zum Katalog

STARLINK-34351

AktivKommunikationVLEO
NORAD 64387·PAYLOAD·🇺🇸 United States

Gestartet Jun 13, 2025 von Cape Canaveral Space Force Station

Loading…

Nächste Überflüge (nächste 24 Stunden)

TLE

AktuellSource: CelesTrak SupGP

Epoche: Sep 14, 2026, 22:54 UTC

1 64387C 25127T   26257.95465278 -.00011193  00000+0 -40554-3 0  2577
2 64387  43.0026 190.5662 0001258 264.1844 205.6245 15.27572725    17

Verfolge STARLINK-34351 in Echtzeit mit AllMySat

Download on the App Store